EWG55UW LGAV-EDDS

Flight info

Callsign EWG55UW
Flight time N/A
Altitude 34000
Route KOR UL53 ELVAS DCT DIMIS DCT ADDER DCT PETAK DCT GLOMY DCT ELTIB DCT NIVES DCT GORPA DCT INGID DCT SBG DCT TITIG L173 DODIL T127 TEKSI TEKSI5A
Aircraft A320/M-SDE3FGHIRWY/LB1

Departure

Time N/A
Airport Athens Eleftherios Venizelos International Airport (LGAV)

Arrival

Time 2026-05-04 18:07
Airport Stuttgart Airport (EDDS)
Time Latitude Longitude Altitude Speed Heading
2026-05-04 16:51 43.80251 17.39054 34077 ft 427 kts 321°
2026-05-04 16:52 43.84855 17.33830 34075 ft 428 kts 321°
2026-05-04 16:53 43.91730 17.26000 34079 ft 429 kts 321°
2026-05-04 16:54 44.00964 17.15467 34060 ft 430 kts 320°
2026-05-04 16:55 44.14836 16.99599 34080 ft 431 kts 321°
2026-05-04 16:56 44.26358 16.86282 34072 ft 432 kts 320°
2026-05-04 16:57 44.33388 16.78410 34080 ft 432 kts 324°
2026-05-04 16:58 44.43354 16.69008 34068 ft 433 kts 325°
2026-05-04 17:00 44.58226 16.54512 34055 ft 435 kts 324°
2026-05-04 17:01 44.70572 16.42375 34043 ft 435 kts 324°
2026-05-04 17:02 44.80515 16.32550 34040 ft 438 kts 324°
2026-05-04 17:03 44.87980 16.25149 34053 ft 437 kts 324°
2026-05-04 17:03 44.95436 16.17736 34032 ft 438 kts 324°
2026-05-04 17:04 45.04586 16.08625 34039 ft 440 kts 324°
2026-05-04 17:05 45.14585 15.98602 34047 ft 440 kts 324°
2026-05-04 17:06 45.22095 15.91053 34026 ft 442 kts 323°
2026-05-04 17:07 45.28790 15.84344 34032 ft 443 kts 324°
2026-05-04 17:07 45.34646 15.78494 34031 ft 443 kts 324°
2026-05-04 17:08 45.42200 15.70921 34021 ft 443 kts 324°
2026-05-04 17:09 45.47239 15.65848 34011 ft 444 kts 323°
2026-05-04 17:09 45.52275 15.60755 34016 ft 444 kts 323°
2026-05-04 17:10 45.64862 15.48017 34013 ft 443 kts 323°
2026-05-04 17:11 45.69891 15.42904 34008 ft 444 kts 323°
2026-05-04 17:12 45.77425 15.35205 34029 ft 443 kts 322°
2026-05-04 17:13 45.89709 15.21964 34016 ft 443 kts 321°
2026-05-04 17:14 45.99559 15.11228 34012 ft 446 kts 321°
2026-05-04 17:15 46.06991 15.03154 34023 ft 446 kts 321°
2026-05-04 17:16 46.16876 14.92367 34024 ft 448 kts 321°
2026-05-04 17:17 46.26800 14.81445 34046 ft 449 kts 320°
2026-05-04 17:18 46.36725 14.70456 34049 ft 449 kts 320°
2026-05-04 17:19 46.46688 14.59433 34017 ft 451 kts 320°
2026-05-04 17:20 46.56642 14.48314 34015 ft 451 kts 319°
2026-05-04 17:20 46.63426 14.38920 33986 ft 450 kts 313°
2026-05-04 17:21 46.72355 14.26092 34001 ft 451 kts 313°
2026-05-04 17:22 46.76802 14.19698 33995 ft 452 kts 313°
2026-05-04 17:23 46.85768 14.06755 34006 ft 453 kts 313°
2026-05-04 17:24 46.92487 13.97020 34020 ft 453 kts 313°
2026-05-04 17:25 47.01448 13.84006 34029 ft 454 kts 313°
2026-05-04 17:26 47.10372 13.70964 34023 ft 454 kts 313°
2026-05-04 17:27 47.21536 13.54555 34019 ft 454 kts 313°
2026-05-04 17:28 47.30464 13.41418 33018 ft 452 kts 313°
2026-05-04 17:29 47.37186 13.31477 31549 ft 461 kts 312°
2026-05-04 17:29 47.43996 13.21374 30791 ft 464 kts 313°
2026-05-04 17:30 47.50807 13.11219 30039 ft 467 kts 312°
2026-05-04 17:31 47.55377 13.04378 29943 ft 467 kts 313°
2026-05-04 17:32 47.66784 12.87246 29923 ft 467 kts 313°
2026-05-04 17:33 47.75883 12.73490 29919 ft 466 kts 313°
2026-05-04 17:34 47.84938 12.59765 29909 ft 467 kts 312°
2026-05-04 17:35 47.91326 12.48911 29905 ft 462 kts 295°
2026-05-04 17:35 47.93892 12.40150 29913 ft 461 kts 291°
2026-05-04 17:36 47.96616 12.31476 29906 ft 462 kts 295°
2026-05-04 17:36 47.99561 12.22953 29904 ft 463 kts 295°
2026-05-04 17:37 48.02510 12.14411 29928 ft 462 kts 295°
2026-05-04 17:37 48.05388 12.05768 29927 ft 461 kts 294°
2026-05-04 17:38 48.08200 11.97215 29946 ft 460 kts 294°
2026-05-04 17:38 48.11024 11.88638 29957 ft 459 kts 294°
2026-05-04 17:39 48.15240 11.75790 29955 ft 458 kts 294°
2026-05-04 17:39 48.18049 11.67228 29957 ft 458 kts 294°
2026-05-04 17:40 48.20866 11.58596 29959 ft 458 kts 294°
2026-05-04 17:40 48.23626 11.50086 29600 ft 454 kts 294°
2026-05-04 17:41 48.25009 11.45813 29085 ft 456 kts 294°
2026-05-04 17:41 48.26396 11.41525 28596 ft 458 kts 294°
2026-05-04 17:41 48.27791 11.37214 28102 ft 460 kts 294°
2026-05-04 17:41 48.29188 11.32890 27630 ft 461 kts 294°
2026-05-04 17:42 48.30591 11.28545 27172 ft 463 kts 294°
2026-05-04 17:42 48.31992 11.24190 26710 ft 464 kts 294°
2026-05-04 17:42 48.33399 11.19812 26264 ft 466 kts 294°
2026-05-04 17:42 48.34808 11.15422 25808 ft 467 kts 294°
2026-05-04 17:43 48.36221 11.11006 25371 ft 469 kts 294°
2026-05-04 17:43 48.37638 11.06570 24722 ft 471 kts 293°
2026-05-04 17:43 48.39055 11.02124 24005 ft 472 kts 293°
2026-05-04 17:43 48.40467 10.97689 23272 ft 469 kts 293°
2026-05-04 17:44 48.41869 10.93274 22467 ft 464 kts 293°
2026-05-04 17:44 48.43252 10.88912 21679 ft 459 kts 293°
2026-05-04 17:44 48.44619 10.84595 20917 ft 454 kts 293°
2026-05-04 17:44 48.45971 10.80321 20179 ft 450 kts 292°
2026-05-04 17:45 48.47305 10.76092 19452 ft 445 kts 292°
2026-05-04 17:45 48.48626 10.71890 18743 ft 441 kts 292°
2026-05-04 17:45 48.49932 10.67731 18015 ft 437 kts 292°
2026-05-04 17:45 48.51229 10.63596 17217 ft 434 kts 292°
2026-05-04 17:46 48.52513 10.59513 16659 ft 430 kts 293°
2026-05-04 17:46 48.53787 10.55454 16136 ft 427 kts 293°
2026-05-04 17:46 48.55051 10.51412 15741 ft 425 kts 293°
2026-05-04 17:46 48.56305 10.47388 15366 ft 423 kts 293°
2026-05-04 17:47 48.57558 10.43367 15011 ft 422 kts 293°
2026-05-04 17:47 48.58815 10.39363 14652 ft 422 kts 294°
2026-05-04 17:47 48.60076 10.35371 14298 ft 421 kts 294°
2026-05-04 17:47 48.61338 10.31389 13937 ft 419 kts 294°
2026-05-04 17:48 48.62590 10.27430 13573 ft 417 kts 294°
2026-05-04 17:48 48.63833 10.23490 13168 ft 413 kts 294°
2026-05-04 17:48 48.65051 10.19623 12767 ft 410 kts 293°
2026-05-04 17:48 48.66272 10.15737 12386 ft 408 kts 293°
2026-05-04 17:49 48.67407 10.11824 12000 ft 404 kts 288°
2026-05-04 17:49 48.68190 10.07770 11626 ft 399 kts 280°
2026-05-04 17:49 48.68609 10.03636 11368 ft 395 kts 272°
2026-05-04 17:49 48.68688 9.99494 11121 ft 393 kts 266°
2026-05-04 17:50 48.68515 9.95381 10949 ft 391 kts 264°
2026-05-04 17:50 48.68327 9.91272 10971 ft 391 kts 264°
2026-05-04 17:50 48.68135 9.87159 10813 ft 391 kts 263°
2026-05-04 17:50 48.67946 9.83094 10495 ft 381 kts 263°
2026-05-04 17:51 48.67764 9.79165 10231 ft 366 kts 263°
2026-05-04 17:51 48.67586 9.75407 10026 ft 351 kts 262°
2026-05-04 17:51 48.67223 9.71857 9805 ft 330 kts 255°
2026-05-04 17:51 48.66629 9.68640 9549 ft 305 kts 248°
2026-05-04 17:52 48.66140 9.66706 9414 ft 292 kts 244°
2026-05-04 17:52 48.65274 9.64001 9167 ft 282 kts 239°
2026-05-04 17:52 48.64264 9.61496 8936 ft 277 kts 233°
2026-05-04 17:52 48.63112 9.59164 8705 ft 276 kts 228°
2026-05-04 17:53 48.61879 9.56947 8489 ft 275 kts 228°
2026-05-04 17:53 48.60650 9.54741 8257 ft 274 kts 228°
2026-05-04 17:53 48.59432 9.52556 8031 ft 268 kts 228°
2026-05-04 17:53 48.58250 9.50431 7828 ft 260 kts 229°
2026-05-04 17:54 48.57096 9.48358 7633 ft 257 kts 228°
2026-05-04 17:54 48.56009 9.46227 7437 ft 256 kts 233°
2026-05-04 17:54 48.55070 9.43939 7238 ft 256 kts 239°
2026-05-04 17:54 48.54280 9.41527 7041 ft 257 kts 245°
2026-05-04 17:55 48.53651 9.39035 6843 ft 257 kts 250°
2026-05-04 17:55 48.53152 9.36450 6644 ft 257 kts 252°
2026-05-04 17:55 48.52666 9.33866 6455 ft 256 kts 252°
2026-05-04 17:55 48.52178 9.31286 6255 ft 255 kts 252°
2026-05-04 17:56 48.51692 9.28717 6079 ft 255 kts 252°
2026-05-04 17:56 48.51202 9.26138 5961 ft 256 kts 252°
2026-05-04 17:56 48.50708 9.23555 5835 ft 256 kts 252°
2026-05-04 17:56 48.50213 9.20973 5699 ft 257 kts 252°
2026-05-04 17:57 48.49718 9.18383 5585 ft 257 kts 252°
2026-05-04 17:57 48.49288 9.15776 5455 ft 255 kts 263°
2026-05-04 17:57 48.49452 9.13197 5329 ft 243 kts 289°
2026-05-04 17:57 48.50269 9.11037 5210 ft 233 kts 313°
2026-05-04 17:58 48.51548 9.09597 5087 ft 229 kts 334°
2026-05-04 17:58 48.52982 9.08550 4957 ft 228 kts 329°
2026-05-04 17:58 48.54079 9.06877 4831 ft 227 kts 296°
2026-05-04 17:58 48.54384 9.04585 4705 ft 226 kts 264°
2026-05-04 17:59 48.54071 9.02290 4593 ft 226 kts 255°
2026-05-04 17:59 48.53638 9.00014 4465 ft 226 kts 254°
2026-05-04 17:59 48.52735 8.95485 4206 ft 224 kts 254°
2026-05-04 18:00 48.52318 8.93229 4098 ft 222 kts 264°
2026-05-04 18:00 48.52434 8.90994 4008 ft 209 kts 290°
2026-05-04 18:00 48.53171 8.89174 4021 ft 202 kts 316°
2026-05-04 18:00 48.54333 8.88057 4027 ft 197 kts 341°
2026-05-04 18:01 48.55691 8.87814 4032 ft 200 kts
2026-05-04 18:01 48.57001 8.88488 4019 ft 201 kts 32°
2026-05-04 18:01 48.58047 8.89893 4027 ft 203 kts 43°
2026-05-04 18:02 48.60042 8.92921 4019 ft 203 kts 44°
2026-05-04 18:02 48.61037 8.94432 4020 ft 203 kts 43°
2026-05-04 18:02 48.62033 8.95941 4014 ft 203 kts 44°
2026-05-04 18:02 48.63032 8.97449 4012 ft 203 kts 44°
2026-05-04 18:03 48.64020 8.98947 4036 ft 196 kts 43°
2026-05-04 18:03 48.64817 9.00532 3907 ft 187 kts 64°
2026-05-04 18:03 48.65197 9.02345 3712 ft 179 kts 72°
2026-05-04 18:03 48.65533 9.04105 3479 ft 166 kts 71°
2026-05-04 18:04 48.65842 9.05720 3266 ft 158 kts 71°
2026-05-04 18:04 48.66143 9.07288 3056 ft 153 kts 71°
2026-05-04 18:04 48.66731 9.10357 2657 ft 152 kts 71°
2026-05-04 18:05 48.67021 9.11876 2456 ft 150 kts 70°
2026-05-04 18:05 48.67309 9.13375 2222 ft 147 kts 71°
2026-05-04 18:05 48.67590 9.14851 2017 ft 145 kts 71°
2026-05-04 18:05 48.67871 9.16322 1861 ft 147 kts 71°
2026-05-04 18:06 48.68438 9.19305 1460 ft 148 kts 70°
2026-05-04 18:06 48.68725 9.20802 1287 ft 147 kts 70°
2026-05-04 18:06 48.68978 9.22130 1244 ft 107 kts 74°
2026-05-04 18:07 48.69123 9.22858 1220 ft 31 kts 54°
2026-05-04 18:07 48.69234 9.23054 1216 ft 15 kts 46°
2026-05-04 18:07 48.69304 9.23147 1218 ft 12 kts 30°
2026-05-04 18:07 48.69377 9.23140 1221 ft 10 kts 328°
2026-05-04 18:08 48.69406 9.23064 1224 ft 8 kts 280°
2026-05-04 18:08 48.69399 9.22987 1226 ft 9 kts 253°
2026-05-04 18:08 48.69380 9.22889 1228 ft 14 kts 254°
2026-05-04 18:08 48.69351 9.22733 1231 ft 17 kts 254°
2026-05-04 18:09 48.69287 9.22400 1251 ft 17 kts 254°
2026-05-04 18:09 48.69227 9.22082 1249 ft 17 kts 254°
2026-05-04 18:10 48.69195 9.21909 1253 ft 17 kts 254°
2026-05-04 18:10 48.69161 9.21735 1263 ft 17 kts 254°
2026-05-04 18:10 48.69128 9.21559 1262 ft 17 kts 254°
2026-05-04 18:10 48.69094 9.21383 1266 ft 18 kts 254°
2026-05-04 18:11 48.69061 9.21205 1275 ft 18 kts 254°
2026-05-04 18:11 48.69027 9.21026 1273 ft 18 kts 254°
2026-05-04 18:11 48.68992 9.20849 1274 ft 18 kts 253°
2026-05-04 18:11 48.68959 9.20667 1281 ft 18 kts 254°
2026-05-04 18:12 48.68924 9.20487 1283 ft 18 kts 254°
2026-05-04 18:12 48.68893 9.20320 1288 ft 15 kts 254°
2026-05-04 18:12 48.68867 9.20185 1291 ft 11 kts 253°
2026-05-04 18:12 48.68848 9.20083 1293 ft 9 kts 254°
2026-05-04 18:13 48.68826 9.20000 1295 ft 10 kts 242°
2026-05-04 18:13 48.68837 9.19901 1299 ft 11 kts 328°
2026-05-04 18:13 48.68872 9.19724 1307 ft 11 kts 253°
2026-05-04 18:14 48.68853 9.19624 1309 ft 10 kts 254°
2026-05-04 18:14 48.68833 9.19519 1311 ft 10 kts 253°
2026-05-04 18:14 48.68814 9.19422 1313 ft 9 kts 256°
2026-05-04 18:15 48.68878 9.19362 1315 ft 2 kts 345°
2026-05-04 18:15 48.68884 9.19359 1315 ft 0 kts 345°